Wind_Speed
50 52 52 52 53 54 54 54 53 51 51 52 51 50 47 48 48 48 47 47 46 45 45 44 44 43 43 42 41 40 40 39 38 38 38 38 38 38 38 39 39 39 39 39
49 51 50 51 52 54 55 56 54 53 53 53 53 52 49 49 49 48 48 47 47 47 47 46 46 45 44 43 42 42 41 41 40 40 40 40 40 40 39 40 40 40 40 40
48 48 49 51 52 53 55 55 55 54 54 54 54 54 51 49 50 49 48 47 47 48 48 48 47 46 45 44 43 43 43 42 42 41 41 41 42 41 41 41 41 41 41 41
46 46 48 50 51 51 52 52 53 54 55 55 55 55 52 50 50 49 48 48 47 47 48 48 48 48 46 45 45 44 44 43 43 42 42 42 42 41 41 42 42 42 42 41
44 45 47 49 50 50 50 50 50 52 54 56 56 56 55 51 50 49 48 48 47 47 47 48 48 48 47 47 46 45 45 45 44 43 42 42 42 42 42 42 42 42 42 43
41 43 46 47 47 48 47 48 48 49 51 55 54 55 56 53 50 48 48 48 48 47 48 48 48 48 48 48 47 46 46 45 45 44 43 43 43 43 43 43 43 43 42 43
37 39 42 43 45 46 46 46 46 46 49 53 52 54 55 52 49 48 48 48 48 48 48 48 48 48 48 47 47 46 46 45 45 44 44 44 44 43 43 43 43 43 43 43
36 37 38 41 42 43 44 45 45 45 47 49 51 52 52 51 49 48 48 48 47 48 48 47 48 48 48 47 47 47 46 46 45 45 44 44 44 44 43 42 43 43 43 43
34 36 36 38 40 41 41 43 43 43 44 45 48 49 50 49 48 47 47 47 47 47 47 47 48 48 48 47 47 47 46 46 45 45 45 45 44 44 44 43 44 44 43 43
31 34 36 36 37 39 41 40 41 44 43 43 45 45 46 46 46 45 46 46 46 46 46 47 47 48 48 48 47 47 46 46 45 45 45 45 45 45 45 45 45 45 44 43
28 31 33 36 36 37 38 40 41 42 45 44 44 45 44 43 43 43 43 44 45 45 46 46 46 47 47 47 47 46 46 46 46 46 46 46 46 46 46 47 46 46 45 44
25 27 30 32 34 36 38 39 40 40 41 43 44 45 43 41 41 41 42 43 44 45 46 46 46 46 46 47 46 46 46 46 46 47 47 47 47 47 47 47 47 46 45 45
21 24 27 28 31 33 35 37 38 39 39 40 41 42 40 40 40 41 41 42 43 44 45 45 45 45 46 46 46 46 47 46 46 46 46 47 48 48 48 47 48 47 46 45
20 21 24 26 28 31 32 33 35 37 39 39 39 40 39 38 39 40 40 40 41 43 44 45 45 45 45 46 46 46 46 46 46 46 47 47 47 47 47 47 47 47 47 47
22 21 22 24 26 29 31 32 33 36 38 39 39 39 39 39 39 39 40 40 41 42 43 43 44 45 45 45 46 45 45 45 45 46 46 46 46 47 47 47 47 48 48 48
21 21 21 23 24 26 29 31 32 34 36 37 38 39 39 39 39 39 39 40 40 42 43 43 43 44 44 45 46 46 46 46 46 46 46 46 46 46 47 46 46 47 47 48
18 19 20 20 23 26 28 28 30 32 34 37 39 38 38 39 39 39 39 39 40 40 41 42 43 43 44 44 45 45 45 45 46 46 46 46 47 47 47 47 47 47 47 47
15 18 19 19 21 24 26 28 29 31 32 34 36 37 37 37 38 37 37 37 38 39 39 41 42 42 43 43 44 44 45 45 45 45 46 46 47 47 47 47 47 48 48 48
13 15 17 17 18 21 23 25 28 30 30 32 34 36 36 36 37 37 37 37 36 36 38 39 40 41 41 41 42 42 43 44 44 44 45 46 46 46 46 46 46 46 46 47
11 12 14 15 15 17 20 22 24 27 29 31 32 33 35 36 37 36 36 37 36 36 37 38 38 39 40 40 41 41 41 42 43 43 43 44 45 45 45 44 45 45 45 45
8 10 12 13 14 15 17 19 21 23 25 28 30 31 32 34 34 34 34 34 35 36 36 37 37 37 38 39 39 40 40 41 42 43 43 44 44 44 44 44 44 44 44 43
6 7 9 11 12 13 15 17 20 21 23 25 27 28 30 31 32 32 32 32 33 34 35 36 36 36 37 37 38 38 38 39 41 42 42 43 43 44 44 44 44 44 43 43
6 7 8 10 11 11 12 15 17 19 21 23 24 25 27 27 29 30 30 31 32 32 33 34 35 35 35 36 36 37 37 38 38 39 41 42 42 43 43 44 43 43 43 43
5 6 7 8 10 11 12 14 14 16 18 20 22 22 23 25 26 27 28 29 29 30 31 33 34 33 34 34 35 35 35 36 36 37 39 40 41 42 42 43 43 42 42 42
6 6 7 8 9 10 10 12 13 14 16 17 19 21 21 22 23 24 25 27 28 29 29 30 31 31 31 32 33 34 34 35 36 36 36 37 38 39 40 41 41 41 42 42
7 8 8 8 9 10 10 11 12 13 15 16 18 19 20 20 21 22 24 26 27 28 28 28 28 29 30 31 32 33 33 34 34 35 35 35 36 37 37 38 38 39 40 40
Wind_Direction
252 250 249 250 249 248 248 247 247 247 246 245 245 243 241 240 240 240 240 240 240 240 240 240 241 241 241 241 242 242 242 242 242 242 243 244 244 245 245 244 246 247 247 246
250 249 249 248 247 246 246 246 246 245 245 245 245 243 241 241 240 240 240 240 240 240 240 240 240 241 241 242 242 242 242 243 243 243 244 244 245 246 245 245 246 246 246 246
251 250 247 245 245 244 244 245 244 245 244 244 244 243 241 240 241 240 240 240 240 239 240 240 240 240 241 241 241 242 243 243 244 244 245 245 245 245 246 246 246 246 246 246
250 247 245 243 242 243 243 243 244 244 243 243 243 244 240 240 241 240 240 240 239 239 240 240 240 240 240 241 241 242 242 243 244 245 245 245 245 246 246 246 247 247 247 247
249 247 246 244 242 242 243 242 243 243 243 243 241 243 241 239 240 240 240 240 239 238 239 239 239 239 239 240 241 241 242 243 244 245 245 245 246 247 247 248 249 249 248 247
248 246 245 244 242 241 241 242 242 243 243 244 241 243 242 239 239 239 239 238 238 237 237 238 238 238 239 240 240 241 241 242 243 244 245 246 246 247 248 249 249 249 248 248
247 245 244 242 240 238 237 239 241 242 242 243 241 242 241 240 238 238 237 237 237 237 236 237 237 237 239 239 240 241 242 243 244 245 245 246 247 247 248 249 249 248 248 248
247 244 241 239 238 237 236 237 238 241 243 244 242 241 241 239 237 236 236 237 237 237 237 236 237 237 238 240 241 241 243 244 245 245 245 246 247 248 249 250 249 248 248 248
248 244 241 240 237 235 233 235 236 239 242 243 243 242 241 240 239 237 236 236 236 236 236 236 237 237 238 239 240 242 243 245 245 245 245 246 247 247 248 248 248 248 248 248
252 245 240 238 236 234 232 233 232 233 236 240 242 241 240 239 239 237 236 236 236 237 237 237 237 237 238 239 240 242 243 245 245 245 245 246 247 247 247 247 247 247 248 249
253 247 241 237 235 233 230 230 232 234 235 238 240 241 239 240 240 238 236 235 235 235 236 236 237 237 238 239 240 242 244 244 245 245 246 247 247 247 247 247 247 247 247 248
253 248 243 239 236 235 233 230 229 231 233 235 238 240 239 239 239 238 237 235 235 235 236 236 237 237 238 239 240 241 243 244 245 246 247 248 248 247 247 247 247 246 247 247
252 247 244 240 236 233 233 229 228 229 233 234 235 237 238 239 239 238 237 236 235 236 237 237 237 238 238 239 240 241 242 244 245 247 248 248 247 247 247 248 247 247 247 247
253 247 241 238 237 233 232 230 229 230 231 233 234 237 237 238 239 238 237 237 236 236 237 238 238 239 240 240 241 241 242 243 245 246 247 247 247 247 248 248 248 248 248 248
254 248 240 235 233 231 229 228 230 232 233 235 236 238 238 237 237 237 237 237 237 236 236 237 238 239 240 241 241 241 242 243 244 245 246 245 246 246 246 248 249 249 249 249
252 247 240 236 234 231 228 227 229 230 232 233 235 236 237 238 238 237 237 238 239 238 237 237 238 239 240 241 241 242 242 242 244 245 245 244 244 245 246 247 249 249 250 251
252 248 242 240 236 234 232 228 228 227 229 232 233 235 236 236 237 236 238 239 239 238 238 238 239 239 240 241 241 242 243 243 244 245 245 244 244 245 245 246 247 249 250 252
252 249 245 243 239 238 234 232 232 230 230 232 233 234 236 237 237 237 240 241 240 240 239 239 240 240 240 241 242 243 243 243 243 244 244 244 244 245 246 246 248 249 250 252
253 249 245 243 241 239 236 235 234 233 233 235 237 237 237 237 238 239 242 242 242 241 240 241 241 240 241 242 243 243 243 244 243 243 243 243 243 244 246 246 247 249 250 251
260 251 245 242 239 236 234 232 233 236 238 238 240 240 240 239 239 240 242 243 243 243 242 242 242 242 242 243 243 244 244 244 243 243 242 243 243 244 245 246 247 248 250 251
260 249 244 239 238 238 236 232 234 239 238 237 238 239 240 240 241 242 244 244 243 243 243 243 242 243 243 243 244 244 244 243 243 243 243 243 243 244 244 245 246 247 249 250
263 250 244 244 239 236 239 239 242 245 242 240 238 237 239 240 240 241 242 243 243 242 242 242 243 243 243 244 244 243 244 244 243 243 243 244 244 244 244 245 246 248 249 250
280 261 256 252 246 246 244 246 248 250 248 245 242 239 239 239 239 240 242 243 243 241 241 241 241 241 242 242 243 242 243 243 242 243 243 244 244 244 245 246 247 248 249 250
289 271 259 252 250 253 251 249 251 250 248 246 243 242 240 239 240 240 242 242 240 240 240 240 240 240 241 242 243 242 241 241 241 243 244 244 244 245 246 246 247 248 249 250
293 278 267 259 260 262 257 254 253 252 249 245 243 243 242 240 240 239 238 238 238 237 238 239 239 239 239 240 240 241 242 241 241 242 243 243 243 243 244 245 245 247 248 250
296 288 278 271 269 270 270 268 263 259 255 249 246 246 246 243 239 237 237 237 237 236 236 236 236 237 237 237 238 239 240 240 241 242 242 242 241 242 243 243 244 246 248 249
Height
5633 5636 5640 5647 5652 5657 5660 5663 5668 5673 5676 5680 5684 5690 5695 5698 5702 5707 5711 5715 5719 5723 5726 5729 5733 5736 5740 5743 5746 5749 5752 5755 5758 5760 5763 5766 5768 5771 5773 5776 5779 5781 5784 5786
5617 5621 5630 5633 5635 5639 5643 5648 5654 5659 5663 5667 5671 5676 5682 5686 5691 5695 5699 5704 5708 5712 5715 5719 5722 5726 5730 5734 5737 5740 5743 5746 5749 5752 5754 5757 5759 5762 5765 5767 5770 5772 5775 5777
5603 5611 5614 5616 5620 5624 5629 5635 5641 5645 5649 5652 5657 5662 5669 5675 5678 5683 5688 5692 5696 5700 5704 5708 5712 5716 5720 5723 5727 5731 5734 5737 5740 5742 5745 5748 5750 5753 5756 5758 5760 5763 5765 5768
5589 5595 5597 5601 5605 5610 5615 5622 5626 5630 5634 5638 5643 5647 5657 5662 5666 5671 5676 5680 5684 5688 5692 5696 5701 5705 5709 5713 5717 5720 5723 5726 5729 5732 5735 5738 5741 5744 5746 5748 5751 5753 5755 5758
5576 5581 5583 5587 5593 5598 5603 5608 5612 5616 5619 5623 5629 5633 5641 5648 5654 5659 5664 5668 5672 5677 5681 5685 5689 5694 5698 5702 5706 5709 5713 5716 5719 5722 5725 5728 5731 5734 5736 5739 5741 5743 5746 5748
5562 5565 5569 5574 5580 5584 5589 5594 5598 5601 5604 5608 5617 5620 5626 5635 5642 5646 5651 5656 5660 5665 5669 5673 5678 5682 5686 5690 5694 5698 5701 5705 5708 5711 5715 5718 5721 5723 5726 5729 5731 5733 5736 5738
5549 5552 5555 5560 5565 5570 5576 5581 5585 5587 5589 5595 5604 5606 5614 5622 5629 5634 5639 5644 5648 5653 5657 5662 5666 5671 5675 5679 5683 5686 5690 5694 5697 5701 5704 5707 5710 5713 5716 5718 5721 5723 5726 5728
5537 5540 5544 5548 5553 5558 5564 5569 5574 5578 5581 5586 5589 5594 5603 5609 5615 5621 5626 5631 5636 5641 5646 5650 5655 5659 5663 5667 5671 5675 5679 5682 5686 5689 5693 5696 5699 5702 5705 5708 5710 5713 5716 5718
5525 5529 5533 5537 5542 5547 5552 5556 5563 5567 5569 5573 5577 5584 5591 5597 5602 5609 5614 5619 5624 5629 5634 5639 5643 5647 5652 5656 5660 5664 5667 5671 5674 5678 5681 5685 5688 5692 5695 5697 5700 5702 5705 5708
5515 5519 5523 5526 5530 5534 5541 5546 5551 5554 5557 5562 5567 5573 5580 5585 5590 5597 5602 5607 5612 5617 5622 5627 5631 5636 5640 5644 5649 5652 5656 5660 5663 5667 5670 5674 5677 5680 5683 5686 5690 5692 5695 5697
5506 5509 5513 5516 5520 5524 5530 5535 5538 5543 5548 5553 5557 5565 5569 5575 5580 5585 5591 5596 5601 5605 5610 5615 5620 5624 5629 5633 5637 5641 5645 5648 5652 5655 5659 5662 5666 5669 5672 5675 5679 5681 5684 5687
5498 5500 5503 5507 5511 5515 5519 5524 5529 5534 5538 5543 5548 5556 5559 5564 5569 5574 5579 5584 5589 5594 5599 5603 5608 5613 5617 5621 5625 5629 5633 5637 5640 5644 5647 5651 5654 5657 5660 5664 5667 5670 5673 5675
5491 5493 5496 5499 5504 5506 5509 5513 5519 5524 5529 5533 5538 5546 5549 5554 5558 5563 5568 5573 5578 5583 5587 5592 5597 5601 5605 5610 5614 5618 5621 5625 5629 5632 5635 5639 5642 5645 5648 5651 5655 5658 5661 5664
5483 5485 5488 5492 5493 5497 5501 5505 5510 5515 5519 5523 5529 5535 5541 5544 5548 5552 5557 5562 5567 5571 5576 5581 5585 5589 5594 5598 5602 5606 5609 5613 5617 5620 5624 5627 5630 5633 5637 5640 5643 5646 5649 5652
5476 5478 5480 5483 5485 5489 5493 5497 5502 5506 5510 5516 5521 5525 5530 5534 5538 5542 5547 5552 5556 5561 5565 5569 5574 5578 5582 5586 5590 5594 5598 5601 5605 5608 5612 5615 5618 5621 5625 5628 5631 5634 5637 5640
5469 5471 5473 5476 5479 5482 5485 5489 5493 5498 5502 5507 5511 5516 5520 5524 5528 5532 5536 5541 5545 5550 5554 5558 5562 5566 5570 5574 5578 5582 5586 5589 5593 5596 5600 5603 5606 5610 5613 5616 5619 5622 5625 5628
5464 5466 5468 5471 5473 5475 5479 5482 5485 5489 5493 5498 5501 5507 5511 5514 5518 5523 5526 5530 5535 5539 5543 5546 5551 5555 5559 5563 5566 5570 5574 5577 5581 5584 5588 5591 5594 5598 5601 5605 5608 5611 5613 5616
5459 5460 5462 5464 5467 5469 5473 5475 5478 5482 5485 5489 5493 5497 5501 5504 5508 5513 5516 5520 5524 5528 5531 5535 5539 5543 5547 5551 5555 5558 5562 5566 5569 5573 5576 5579 5582 5586 5589 5592 5596 5598 5601 5604
5454 5456 5457 5459 5460 5462 5466 5468 5471 5475 5478 5481 5484 5487 5491 5495 5499 5503 5507 5510 5514 5517 5521 5524 5528 5532 5536 5540 5543 5547 5550 5554 5557 5561 5564 5567 5571 5574 5577 5581 5584 5586 5589 5591
5450 5451 5453 5454 5456 5458 5461 5463 5464 5469 5471 5473 5476 5479 5482 5486 5490 5495 5498 5501 5504 5507 5510 5514 5518 5521 5525 5528 5532 5535 5539 5542 5546 5549 5552 5556 5559 5562 5566 5569 5572 5574 5577 5579
5448 5448 5449 5450 5451 5453 5455 5457 5459 5463 5465 5466 5468 5471 5474 5477 5481 5485 5488 5491 5494 5497 5500 5504 5507 5511 5514 5518 5521 5524 5527 5530 5534 5537 5541 5544 5548 5551 5554 5558 5560 5563 5565 5568
5445 5445 5446 5447 5448 5451 5450 5452 5454 5455 5457 5459 5461 5463 5466 5469 5472 5475 5478 5481 5484 5487 5490 5494 5497 5501 5504 5507 5510 5513 5516 5519 5522 5526 5529 5533 5536 5540 5543 5546 5549 5552 5554 5557
5443 5443 5443 5444 5446 5445 5446 5447 5448 5449 5450 5452 5454 5456 5458 5461 5463 5466 5469 5472 5474 5477 5481 5484 5487 5491 5494 5497 5499 5503 5506 5508 5511 5515 5518 5521 5525 5528 5531 5535 5537 5540 5543 5546
5441 5440 5440 5441 5441 5442 5442 5443 5443 5443 5444 5446 5447 5449 5451 5453 5455 5458 5460 5463 5465 5468 5471 5475 5478 5481 5484 5487 5490 5493 5495 5498 5501 5504 5508 5511 5514 5517 5520 5523 5526 5529 5532 5534
5439 5438 5438 5438 5438 5438 5438 5438 5438 5438 5439 5440 5441 5443 5445 5446 5448 5450 5452 5455 5457 5460 5463 5466 5469 5472 5475 5478 5481 5483 5486 5489 5492 5495 5497 5500 5503 5506 5509 5512 5515 5518 5521 5523
5437 5437 5436 5436 5435 5435 5434 5434 5434 5434 5434 5435 5436 5438 5439 5440 5441 5443 5445 5448 5450 5453 5455 5458 5461 5463 5466 5469 5471 5474 5477 5479 5482 5485 5488 5490 5493 5495 5498 5501 5504 5507 5510 5512